RYR66 EGPH-EKVG

Flight info

Callsign RYR66
Flight time N/A
Altitude 33000
Route GRICE P600 GLESK DCT SMOKI/N0459F340 DCT NALAN/M071F240 DCT SUDUR
Aircraft B738/M-SDE2E3FGHIRWXY/LB1

Departure

Time N/A
Airport Edinburgh Airport (EGPH)

Arrival

Time 2026-05-07 13:05
Airport Vágar Airport (EKVG)
Time Latitude Longitude Altitude Speed Heading
2026-05-07 12:23 59.33406 -4.14979 34997 ft 431 kts 332°
2026-05-07 12:24 59.36056 -4.17758 35009 ft 432 kts 332°
2026-05-07 12:24 59.41346 -4.23320 34995 ft 432 kts 332°
2026-05-07 12:25 59.46636 -4.28902 34996 ft 432 kts 331°
2026-05-07 12:25 59.51930 -4.34509 35001 ft 432 kts 331°
2026-05-07 12:26 59.57214 -4.40126 35002 ft 432 kts 331°
2026-05-07 12:26 59.62507 -4.45771 34999 ft 432 kts 331°
2026-05-07 12:27 59.67789 -4.51426 35005 ft 432 kts 331°
2026-05-07 12:27 59.73071 -4.57101 35001 ft 432 kts 331°
2026-05-07 12:28 59.78310 -4.62751 35000 ft 432 kts 331°
2026-05-07 12:28 59.83581 -4.68456 35001 ft 431 kts 331°
2026-05-07 12:29 59.88850 -4.74179 35001 ft 431 kts 331°
2026-05-07 12:29 59.94113 -4.79917 35001 ft 431 kts 331°
2026-05-07 12:30 59.99378 -4.85677 35002 ft 431 kts 331°
2026-05-07 12:30 60.04639 -4.91455 34999 ft 431 kts 331°
2026-05-07 12:31 60.09892 -4.97244 35000 ft 431 kts 331°
2026-05-07 12:31 60.12518 -5.00147 35001 ft 431 kts 331°
2026-05-07 12:32 60.25686 -5.14780 35002 ft 431 kts 330°
2026-05-07 12:33 60.33556 -5.23592 35001 ft 431 kts 330°
2026-05-07 12:33 60.38809 -5.29501 35011 ft 436 kts 330°
2026-05-07 12:34 60.44163 -5.35547 35011 ft 447 kts 330°
2026-05-07 12:34 60.46905 -5.38652 34770 ft 458 kts 330°
2026-05-07 12:34 60.49711 -5.41836 34539 ft 465 kts 330°
2026-05-07 12:35 60.52548 -5.45061 34287 ft 467 kts 330°
2026-05-07 12:35 60.55373 -5.48279 34024 ft 464 kts 330°
2026-05-07 12:35 60.58180 -5.51482 33773 ft 461 kts 330°
2026-05-07 12:35 60.60971 -5.54674 33534 ft 461 kts 330°
2026-05-07 12:36 60.63772 -5.57884 33285 ft 462 kts 330°
2026-05-07 12:36 60.66581 -5.61111 33034 ft 463 kts 330°
2026-05-07 12:36 60.69355 -5.64303 32770 ft 463 kts 330°
2026-05-07 12:36 60.72167 -5.67544 31952 ft 465 kts 330°
2026-05-07 12:37 60.74980 -5.70795 31211 ft 465 kts 330°
2026-05-07 12:37 60.77800 -5.74059 30409 ft 466 kts 330°
2026-05-07 12:37 60.80623 -5.77335 29569 ft 467 kts 330°
2026-05-07 12:37 60.83453 -5.80625 28682 ft 469 kts 330°
2026-05-07 12:38 60.86296 -5.83937 27748 ft 470 kts 330°
2026-05-07 12:38 60.89144 -5.87262 26772 ft 472 kts 330°
2026-05-07 12:38 60.92006 -5.90609 25754 ft 474 kts 330°
2026-05-07 12:38 60.94859 -5.93953 24994 ft 470 kts 330°
2026-05-07 12:39 60.97683 -5.97269 24274 ft 464 kts 330°
2026-05-07 12:39 61.00436 -6.00678 23551 ft 459 kts 325°
2026-05-07 12:39 61.02938 -6.04715 22843 ft 454 kts 320°
2026-05-07 12:39 61.05317 -6.08936 22139 ft 449 kts 319°
2026-05-07 12:40 61.07650 -6.13157 21429 ft 444 kts 318°
2026-05-07 12:40 61.09963 -6.17344 20746 ft 439 kts 319°
2026-05-07 12:40 61.12254 -6.21464 20059 ft 435 kts 319°
2026-05-07 12:40 61.14528 -6.25528 19378 ft 430 kts 319°
2026-05-07 12:41 61.16786 -6.29549 18691 ft 426 kts 319°
2026-05-07 12:41 61.19024 -6.33527 18013 ft 421 kts 319°
2026-05-07 12:41 61.21236 -6.37460 17358 ft 417 kts 319°
2026-05-07 12:41 61.23403 -6.41318 16700 ft 413 kts 319°
2026-05-07 12:42 61.25597 -6.45233 16036 ft 409 kts 319°
2026-05-07 12:42 61.27718 -6.49024 15386 ft 405 kts 319°
2026-05-07 12:42 61.29847 -6.52838 14736 ft 402 kts 319°
2026-05-07 12:42 61.31950 -6.56613 14081 ft 398 kts 319°
2026-05-07 12:43 61.34036 -6.60364 13448 ft 394 kts 319°
2026-05-07 12:43 61.36100 -6.64083 12812 ft 391 kts 319°
2026-05-07 12:43 61.38149 -6.67782 12178 ft 387 kts 319°
2026-05-07 12:43 61.40174 -6.71444 11553 ft 384 kts 319°
2026-05-07 12:44 61.42172 -6.75063 11199 ft 374 kts 319°
2026-05-07 12:44 61.44096 -6.78554 11032 ft 359 kts 319°
2026-05-07 12:44 61.45949 -6.81922 10871 ft 346 kts 319°
2026-05-07 12:44 61.47732 -6.85168 10721 ft 334 kts 319°
2026-05-07 12:45 61.49455 -6.88309 10587 ft 323 kts 319°
2026-05-07 12:45 61.51126 -6.91362 10452 ft 313 kts 319°
2026-05-07 12:45 61.52741 -6.94316 10318 ft 303 kts 319°
2026-05-07 12:45 61.54301 -6.97173 10193 ft 294 kts 319°
2026-05-07 12:46 61.55819 -6.99954 10072 ft 285 kts 318°
2026-05-07 12:46 61.57290 -7.02655 9908 ft 278 kts 318°
2026-05-07 12:46 61.58743 -7.05327 9617 ft 277 kts 318°
2026-05-07 12:46 61.60207 -7.07914 9344 ft 275 kts 326°
2026-05-07 12:47 61.61944 -7.09557 9078 ft 272 kts 340°
2026-05-07 12:47 61.63714 -7.10799 8799 ft 271 kts 341°
2026-05-07 12:47 61.65507 -7.12030 8517 ft 270 kts 341°
2026-05-07 12:47 61.67287 -7.13257 8236 ft 269 kts 341°
2026-05-07 12:48 61.69059 -7.14490 7955 ft 267 kts 341°
2026-05-07 12:48 61.70818 -7.15725 7673 ft 266 kts 341°
2026-05-07 12:48 61.72575 -7.16967 7396 ft 265 kts 341°
2026-05-07 12:48 61.74325 -7.18209 7115 ft 264 kts 341°
2026-05-07 12:49 61.76060 -7.19446 6841 ft 263 kts 341°
2026-05-07 12:49 61.77793 -7.20685 6565 ft 262 kts 341°
2026-05-07 12:49 61.79519 -7.21922 6289 ft 261 kts 341°
2026-05-07 12:49 61.81230 -7.23151 6016 ft 259 kts 341°
2026-05-07 12:50 61.82914 -7.24362 5742 ft 258 kts 341°
2026-05-07 12:50 61.84613 -7.25586 5475 ft 257 kts 341°
2026-05-07 12:50 61.86302 -7.26804 5205 ft 256 kts 341°
2026-05-07 12:50 61.87440 -7.27626 5015 ft 256 kts 341°
2026-05-07 12:51 61.89126 -7.28845 4714 ft 256 kts 341°
2026-05-07 12:51 61.90789 -7.30048 4439 ft 255 kts 341°
2026-05-07 12:51 61.93027 -7.31671 4082 ft 254 kts 341°
2026-05-07 12:51 61.94693 -7.32880 3810 ft 253 kts 341°
2026-05-07 12:52 61.96356 -7.34088 3538 ft 252 kts 341°
2026-05-07 12:52 61.98009 -7.35290 3268 ft 251 kts 340°
2026-05-07 12:52 61.99101 -7.36085 3094 ft 250 kts 340°
2026-05-07 12:52 62.00743 -7.37286 2823 ft 249 kts 339°
2026-05-07 12:53 62.02236 -7.39102 2532 ft 248 kts 321°
2026-05-07 12:53 62.03555 -7.41449 2275 ft 246 kts 319°
2026-05-07 12:53 62.04849 -7.43837 2062 ft 246 kts 319°
2026-05-07 12:53 62.06264 -7.45835 1994 ft 247 kts 344°
2026-05-07 12:54 62.07944 -7.45729 2005 ft 247 kts 22°
2026-05-07 12:54 62.09246 -7.43468 2004 ft 249 kts 59°
2026-05-07 12:54 62.09637 -7.39904 2003 ft 250 kts 98°
2026-05-07 12:54 62.08936 -7.36602 1960 ft 250 kts 131°
2026-05-07 12:55 62.07629 -7.34227 2055 ft 247 kts 144°
2026-05-07 12:55 62.06276 -7.32134 2168 ft 233 kts 146°
2026-05-07 12:55 62.04868 -7.30357 1762 ft 239 kts 152°
2026-05-07 12:55 62.03326 -7.29144 1619 ft 230 kts 173°
2026-05-07 12:56 62.01881 -7.30006 1447 ft 214 kts 224°
2026-05-07 12:56 62.01289 -7.32569 1640 ft 182 kts 266°
2026-05-07 12:56 62.01521 -7.35065 1575 ft 168 kts 296°
2026-05-07 12:56 62.02166 -7.37095 1352 ft 166 kts 310°
2026-05-07 12:57 62.02969 -7.38837 1192 ft 162 kts 318°
2026-05-07 12:57 62.03825 -7.40294 1314 ft 159 kts 321°
2026-05-07 12:57 62.04699 -7.41754 1529 ft 161 kts 321°
2026-05-07 12:57 62.05672 -7.42877 1999 ft 162 kts 347°
2026-05-07 12:58 62.06781 -7.42736 2295 ft 155 kts 21°
2026-05-07 12:58 62.07591 -7.41355 2330 ft 151 kts 51°
2026-05-07 12:58 62.08102 -7.39402 1894 ft 151 kts 67°
2026-05-07 12:58 62.08271 -7.37219 1421 ft 147 kts 94°
2026-05-07 12:59 62.08080 -7.35135 1066 ft 140 kts 108°
2026-05-07 12:59 62.07702 -7.33268 820 ft 138 kts 117°
2026-05-07 12:59 62.07257 -7.31451 649 ft 138 kts 119°
2026-05-07 12:59 62.06788 -7.29636 526 ft 136 kts 119°
2026-05-07 13:00 62.06388 -7.27878 1016 ft 136 kts 113°
2026-05-07 13:00 62.06002 -7.25890 1438 ft 160 kts 112°
2026-05-07 13:00 62.05543 -7.23272 1401 ft 207 kts 108°
2026-05-07 13:00 62.05097 -7.20159 1405 ft 236 kts 107°
2026-05-07 13:01 62.04571 -7.16685 1313 ft 248 kts 110°
2026-05-07 13:01 62.04109 -7.13300 1251 ft 226 kts 97°
2026-05-07 13:01 62.03879 -7.10150 1157 ft 205 kts 112°
2026-05-07 13:01 62.03045 -7.08060 1342 ft 176 kts 153°
2026-05-07 13:02 62.01892 -7.07570 1244 ft 173 kts 195°
2026-05-07 13:02 62.00951 -7.08971 1226 ft 169 kts 240°
2026-05-07 13:02 62.00902 -7.11347 1351 ft 168 kts 300°
2026-05-07 13:02 62.01718 -7.13193 1418 ft 176 kts 319°
2026-05-07 13:03 62.02691 -7.14808 1104 ft 176 kts 324°
2026-05-07 13:03 62.03629 -7.16389 872 ft 168 kts 312°
2026-05-07 13:03 62.04257 -7.18444 796 ft 165 kts 295°
2026-05-07 13:03 62.04658 -7.20732 834 ft 162 kts 284°
2026-05-07 13:04 62.05084 -7.22847 679 ft 148 kts 301°
2026-05-07 13:04 62.05602 -7.24669 383 ft 141 kts 298°
2026-05-07 13:04 62.06040 -7.26462 248 ft 132 kts 298°
2026-05-07 13:04 62.06407 -7.27934 263 ft 79 kts 298°
2026-05-07 13:05 62.06546 -7.28492 266 ft 33 kts 296°
2026-05-07 13:05 62.06644 -7.28896 272 ft 29 kts 297°
2026-05-07 13:05 62.06702 -7.29195 272 ft 13 kts 307°
2026-05-07 13:05 62.06718 -7.29174 272 ft 4 kts 93°
2026-05-07 13:06 62.06684 -7.29052 274 ft 18 kts 118°
2026-05-07 13:06 62.06603 -7.28724 268 ft 30 kts 118°
2026-05-07 13:06 62.06501 -7.28312 263 ft 25 kts 118°
2026-05-07 13:06 62.06522 -7.28098 263 ft 17 kts 19°
2026-05-07 13:07 62.06575 -7.28018 263 ft 7 kts 69°
2026-05-07 13:07 62.06591 -7.27981 263 ft 0 kts 18°